{"data":{"norad_id":69974,"intl_designator":"2026-158C","name":"CZ-10B R/B","alt_names":[],"object_type":"ROCKET_BODY","status":"UNKNOWN","operator":null,"country":"PRC","launch_date":"2026-07-10","launch_site_code":"WSC","launch_vehicle":null,"mission":null,"orbit_class":"UNKNOWN","rcs_meters":null,"size_class":null,"mass_kg":null,"dimensions":null,"purposes":[],"wikipedia_slug":null,"has_3d_model":false,"image_url":null,"decayed_at":null,"tle_current":{"epoch":"2026-08-08T20:03:44.700192Z","epoch_age_seconds":3705018,"freshness":"OLD","line1":"1 69974U 26158C   26220.83593403  .00000038  00000+0  40087-4 0  9997","line2":"2 69974  49.9628 168.0877 0197925 293.0748  64.9426 14.64317739  4334","mean_motion":14.64317739,"eccentricity":0.0197925,"inclination_deg":49.9628,"raan_deg":168.0877,"arg_perigee_deg":293.0748,"mean_anomaly_deg":64.9426,"bstar":4.0087e-5,"rev_number":433,"period_min":98.339312681098,"perigee_km":539.58300806502,"apogee_km":818.95033235019,"semimajor_km":7057.4036702076,"source":"CELESTRAK","updated_at":"2026-08-09T09:00:46.803746Z"}}}